Weather History for Cairo, IL

Change the Weather History Date:

Friday, March 8, 2013

  Actual Average Record
Temperature  
Mean Temperature 44 °F -  
Max Temperature 59 °F 53 °F 77 °F (1974)
Min Temperature 30 °F 36 °F 18 °F (1960)
Degree Days  
Heating Degree Days 20    
Moisture  
Dew Point 29 °F    
Average Humidity 58    
Maximum Humidity 87    
Minimum Humidity 29    
Precipitation  
Precipitation 0.00 in - - ()
Sea Level Pressure  
Sea Level Pressure 30.34 in    
Wind  
Wind Speed 6 mph (ENE)    
Max Wind Speed 13 mph    
Max Gust Speed 16 mph    
Visibility 10 miles    
Events      
Averages and records for this station are not official NWS values.
T = Trace of Precipitation, MM = Missing Value Source: NWS Daily Summary

Daily Weather History Graph

Daily Weather History Graph

Search for Another Location

Airport:

Trip Planner

Search our weather history database for the weather conditions in past years. The results will help you decide how hot, cold, wet, or windy it might be!

Date:

Astronomy

Mar. 08, 2013 Rise Set
Actual Time 6:17 AM CST 5:58 PM CST
Civil Twilight 5:51 AM CST 6:23 PM CST
Nautical Twilight 5:21 AM CST 6:54 PM CST
Astronomical Twilight 4:51 AM CST 7:24 PM CST
Moon 3:58 AM CST (3/8) 2:56 PM CST (3/8)
Length of Visible Light 12h 32m
Length of Day
11h 40m
Waning Crescent, 11% of the Moon is Illuminated
Mar 8
Waning Crescent
Mar 11
New
Mar 19
First Quarter
Mar 27
Full
Apr 2
Last Quarter

Hourly Weather History & Observations

Time (CST) Temp. Windchill Dew Point Humidity Pressure Visibility Wind Dir Wind Speed Gust Speed Precip Events Conditions
12:15 AM 33.8 °F 28.6 °F 28.4 °F 81% 30.37 in 10.0 mi ENE 5.8 mph - N/A   Clear
12:35 AM 33.8 °F 29.6 °F 28.4 °F 81% 30.37 in 10.0 mi NE 4.6 mph - N/A   Clear
12:55 AM 32.0 °F 25.6 °F 26.6 °F 80% 30.36 in 10.0 mi ENE 6.9 mph - N/A   Clear
1:15 AM 33.8 °F 29.6 °F 28.4 °F 81% 30.37 in 10.0 mi ENE 4.6 mph - N/A   Clear
1:35 AM 33.8 °F 28.6 °F 28.4 °F 81% 30.37 in 10.0 mi ENE 5.8 mph - N/A   Clear
1:55 AM 33.8 °F 30.8 °F 28.4 °F 81% 30.38 in 10.0 mi East 3.5 mph - N/A   Clear
2:15 AM 33.8 °F 30.8 °F 28.4 °F 81% 30.38 in 10.0 mi NE 3.5 mph - N/A   Clear
2:35 AM 32.0 °F 26.4 °F 26.6 °F 80% 30.38 in 10.0 mi NE 5.8 mph - N/A   Clear
2:55 AM 32.0 °F 25.6 °F 26.6 °F 80% 30.37 in 10.0 mi NE 6.9 mph - N/A   Clear
3:15 AM 32.0 °F 28.7 °F 26.6 °F 80% 30.38 in 10.0 mi NE 3.5 mph - N/A   Clear
3:35 AM 32.0 °F 26.4 °F 26.6 °F 80% 30.38 in 10.0 mi NE 5.8 mph - N/A   Clear
3:55 AM 30.2 °F 24.3 °F 26.6 °F 86% 30.38 in 10.0 mi ENE 5.8 mph - N/A   Clear
4:15 AM 30.2 °F - 26.6 °F 86% 30.39 in 10.0 mi Calm Calm - N/A   Clear
4:35 AM 32.0 °F 27.5 °F 26.6 °F 80% 30.39 in 10.0 mi East 4.6 mph - N/A   Clear
4:55 AM 32.0 °F 26.4 °F 28.4 °F 87% 30.39 in 10.0 mi ENE 5.8 mph - N/A   Clear
5:15 AM 32.0 °F 28.7 °F 28.4 °F 87% 30.40 in 10.0 mi NE 3.5 mph - N/A   Clear
5:35 AM 32.0 °F - 28.4 °F 87% 30.41 in 10.0 mi Calm Calm - N/A   Clear
5:55 AM 32.0 °F 28.7 °F 26.6 °F 80% 30.42 in 10.0 mi NE 3.5 mph - N/A   Clear
6:15 AM 30.2 °F 25.4 °F 24.8 °F 80% 30.41 in 7.0 mi NNE 4.6 mph - N/A   Clear
6:35 AM 30.2 °F 23.4 °F 26.6 °F 86% 30.41 in 10.0 mi NE 6.9 mph - N/A   Clear
6:55 AM 32.0 °F 26.4 °F 28.4 °F 87% 30.41 in 7.0 mi NE 5.8 mph - N/A   Clear
7:35 AM 35.6 °F 29.2 °F 32.0 °F 87% 30.43 in 10.0 mi ENE 8.1 mph - N/A   Clear
7:55 AM 37.4 °F 32.1 °F 32.0 °F 81% 30.44 in 10.0 mi East 6.9 mph - N/A   Clear
8:15 AM 39.2 °F 34.2 °F 32.0 °F 75% 30.44 in 10.0 mi East 6.9 mph - N/A   Clear
8:35 AM 41.0 °F 35.8 °F 32.0 °F 70% 30.45 in 10.0 mi East 8.1 mph - N/A   Clear
8:55 AM 41.0 °F 34.7 °F 32.0 °F 70% 30.44 in 10.0 mi East 10.4 mph - N/A   Clear
9:15 AM 42.8 °F 37.0 °F 30.2 °F 61% 30.43 in 10.0 mi East 10.4 mph - N/A   Clear
9:35 AM 42.8 °F 38.0 °F 30.2 °F 61% 30.44 in 10.0 mi ENE 8.1 mph - N/A   Clear
9:55 AM 42.8 °F 37.5 °F 30.2 °F 61% 30.44 in 10.0 mi ENE 9.2 mph - N/A   Clear
10:15 AM 44.6 °F 40.2 °F 30.2 °F 57% 30.44 in 10.0 mi East 8.1 mph - N/A   Clear
10:35 AM 46.4 °F 41.1 °F 32.0 °F 57% 30.42 in 10.0 mi NE 11.5 mph - N/A   Clear
10:55 AM 46.4 °F 40.7 °F 32.0 °F 57% 30.40 in 10.0 mi ENE 12.7 mph 16.1 mph N/A   Clear
11:15 AM 48.2 °F - 32.0 °F 54% 30.41 in 10.0 mi NE 10.4 mph - N/A   Clear
11:35 AM 48.2 °F - 32.0 °F 54% 30.40 in 10.0 mi ENE 5.8 mph - N/A   Clear
11:55 AM 50.0 °F - 32.0 °F 50% 30.39 in 10.0 mi NE 10.4 mph - N/A   Clear
12:15 PM 51.8 °F - 30.2 °F 44% 30.37 in 10.0 mi East 8.1 mph - N/A   Clear
12:35 PM 51.8 °F - 32.0 °F 47% 30.35 in 10.0 mi ENE 10.4 mph - N/A   Clear
12:55 PM 53.6 °F - 30.2 °F 41% 30.34 in 10.0 mi ENE 8.1 mph - N/A   Clear
1:15 PM 55.4 °F - 30.2 °F 38% 30.33 in 10.0 mi East 11.5 mph 16.1 mph N/A   Clear
1:35 PM 55.4 °F - 28.4 °F 36% 30.33 in 7.0 mi East 8.1 mph - N/A   Clear
1:55 PM 57.2 °F - 28.4 °F 33% 30.32 in 10.0 mi East 6.9 mph - N/A   Clear
2:15 PM 57.2 °F - 26.6 °F 31% 30.32 in 10.0 mi NE 6.9 mph - N/A   Clear
2:35 PM 57.2 °F - 26.6 °F 31% 30.31 in 10.0 mi East 6.9 mph - N/A   Clear
2:55 PM 59.0 °F - 26.6 °F 29% 30.31 in 10.0 mi ENE 8.1 mph - N/A   Clear
3:15 PM 59.0 °F - 26.6 °F 29% 30.31 in 10.0 mi East 6.9 mph - N/A   Clear
3:35 PM 59.0 °F - 26.6 °F 29% 30.31 in 10.0 mi East 5.8 mph - N/A   Clear
3:55 PM 57.2 °F - 26.6 °F 31% 30.30 in 10.0 mi East 4.6 mph - N/A   Clear
4:15 PM 59.0 °F - 28.4 °F 31% 30.30 in 10.0 mi NNE 3.5 mph - N/A   Clear
4:35 PM 59.0 °F - 28.4 °F 31% 30.29 in 10.0 mi ENE 5.8 mph - N/A   Clear
4:55 PM 57.2 °F - 26.6 °F 31% 30.29 in 10.0 mi East 5.8 mph - N/A   Clear
5:15 PM 55.4 °F - 28.4 °F 36% 30.29 in 10.0 mi ENE 6.9 mph - N/A   Clear
5:35 PM 53.6 °F - 28.4 °F 38% 30.29 in 10.0 mi ENE 4.6 mph - N/A   Clear
5:55 PM 51.8 °F - 30.2 °F 44% 30.28 in 10.0 mi ENE 5.8 mph - N/A   Clear
6:15 PM 51.8 °F - 28.4 °F 41% 30.27 in 10.0 mi ENE 8.1 mph - N/A   Clear
6:35 PM 51.8 °F - 28.4 °F 41% 30.27 in 10.0 mi East 6.9 mph - N/A   Clear
6:55 PM 50.0 °F - 28.4 °F 43% 30.27 in 10.0 mi East 6.9 mph - N/A   Clear
7:15 PM 50.0 °F - 28.4 °F 43% 30.27 in 10.0 mi ENE 5.8 mph - N/A   Clear
7:35 PM 50.0 °F - 28.4 °F 43% 30.27 in 10.0 mi East 6.9 mph - N/A   Clear
7:55 PM 48.2 °F - 28.4 °F 46% 30.26 in 10.0 mi East 8.1 mph - N/A   Clear
8:15 PM 50.0 °F - 28.4 °F 43% 30.26 in 10.0 mi East 5.8 mph - N/A   Clear
8:35 PM 50.0 °F - 28.4 °F 43% 30.27 in 10.0 mi East 4.6 mph - N/A   Clear
8:55 PM 50.0 °F - 30.2 °F 47% 30.27 in 10.0 mi East 5.8 mph - N/A   Clear
9:15 PM 50.0 °F - 28.4 °F 43% 30.27 in 10.0 mi ENE 5.8 mph - N/A   Clear
9:35 PM 50.0 °F - 30.2 °F 47% 30.28 in 10.0 mi Calm Calm - N/A   Clear
9:55 PM 48.2 °F - 30.2 °F 50% 30.28 in 10.0 mi Calm Calm - N/A   Clear
10:15 PM 46.4 °F 42.9 °F 32.0 °F 57% 30.27 in 10.0 mi ENE 6.9 mph - N/A   Clear
10:35 PM 48.2 °F - 30.2 °F 50% 30.25 in 10.0 mi ENE 11.5 mph - N/A   Scattered Clouds
10:55 PM 48.2 °F - 30.2 °F 50% 30.25 in 10.0 mi East 5.8 mph - N/A   Scattered Clouds
11:15 PM 48.2 °F - 30.2 °F 50% 30.25 in 10.0 mi East 5.8 mph - N/A   Clear
11:35 PM 48.2 °F - 30.2 °F 50% 30.25 in 10.0 mi ESE 4.6 mph - N/A   Clear
11:55 PM 48.2 °F - 30.2 °F 50% 30.23 in 10.0 mi East 5.8 mph - N/A   Clear